Japan Airlines Virtual Airport Information Service

Singapore Changi Airport

ICAO: WSSS Country: Singapore
Latitude: 1.35019 Longitude: 103.994
Latest Arrival : JAL35 (RJTT-WSSS) Latest Departure : JAL38 (WSSS-RJTT)


WX CaptureLIVE
Data provided by noaa.gov | Fetched at 07:28:13

METAR : WSSS 060700Z 36014KT 330V030 9999 FEW018CB SCT020 BKN300 34/24 Q1009 NOSIG

TAF : WSSS 060635Z 0607/0712 02012KT 9999 FEW015 SCT020 TEMPO 0607/0610 3000 TSRA FEW012CB BKN015


Runway Data for WSSS
Data provided by openaviationdata.com

Runway ID Mag Var Hdg Length Elevation Surface ILS Freq ILS Id ILS Slope
02L 0 22° 13152 ft 22 ft Bituminous 110.9 ICW 3
02C 0 22° 13179 ft 22 ft Bituminous 108.3 ICE 3
20R 0 202° 13152 ft 22 ft Bituminous 108.9 ICH 3
20C 0 202° 13179 ft 22 ft Bituminous 109.7 ICC 3

Singapore Changi Airport, Singapore
Use only for reference purposes



Not for navigational purposes.